Weather History for KHZE - January, 2014

Change the Weather History Date:

Monday, January 27, 2014

  Actual Average (KN60) Record (KN60)
Temperature  
Mean Temperature -6 °F -  
Max Temperature 0 °F 19 °F 49 °F (2015)
Min Temperature -11 °F 2 °F -15 °F (2014)
Degree Days  
Heating Degree Days 70    
Moisture  
Dew Point -17 °F    
Average Humidity 59    
Maximum Humidity 71    
Minimum Humidity 50    
Precipitation  
Precipitation 0.00 in - - ()
Sea Level Pressure  
Sea Level Pressure 30.39 in    
Wind  
Wind Speed 15 mph (NW)    
Max Wind Speed 24 mph    
Max Gust Speed 33 mph    
Visibility 10 miles    
Events      
Averages and records for this station are not official NWS values.
T = Trace of Precipitation, MM = Missing Value Source: NWS Daily Summary

Daily Weather History Graph

Daily Weather History Graph

Search for Another Location

Airport or City:

Trip Planner

Search our weather history database for the weather conditions in past years. The results will help you decide how hot, cold, wet, or windy it might be!

Date:

Astronomy

Jan. 27, 2014 Rise Set
Actual Time 8:17 AM CST 5:40 PM CST
Civil Twilight 7:44 AM CST 6:14 PM CST
Nautical Twilight 7:07 AM CST 6:51 PM CST
Astronomical Twilight 6:31 AM CST 7:27 PM CST
Moon 5:04 AM CST (1/27) 2:25 PM CST (1/27)
Length of Visible Light 10h 29m
Length of Day
9h 22m
Waning Crescent, 14% of the Moon is Illuminated
Jan 27
Waning Crescent
Jan 30
New
Feb 6
First Quarter
Feb 14
Full
Feb 22
Last Quarter

Hourly Weather History & Observations

Time (CST) Temp. Windchill Dew Point Humidity Pressure Visibility Wind Dir Wind Speed Gust Speed Precip Events Conditions
12:15 AM -7.6 °F -32.9 °F -18.4 °F 59% 30.37 in 10.0 mi NW 21.9 mph 28.8 mph N/A   Partly Cloudy
12:35 AM -7.6 °F -32.3 °F -18.4 °F 59% 30.37 in 10.0 mi NW 20.7 mph 33.4 mph N/A   Scattered Clouds
12:55 AM -7.6 °F -33.9 °F -18.4 °F 59% 30.36 in 10.0 mi NW 24.2 mph 31.1 mph N/A   Mostly Cloudy
1:15 AM -7.6 °F -32.9 °F -18.4 °F 59% 30.36 in 10.0 mi NW 21.9 mph 28.8 mph N/A   Scattered Clouds
1:35 AM -7.6 °F -31.1 °F -18.4 °F 59% 30.37 in 10.0 mi NW 18.4 mph 26.5 mph N/A   Partly Cloudy
1:55 AM -7.6 °F -31.7 °F -20.2 °F 54% 30.37 in 10.0 mi NW 19.6 mph 25.3 mph N/A   Scattered Clouds
2:15 AM -7.6 °F -32.3 °F -18.4 °F 59% 30.37 in 10.0 mi NW 20.7 mph 25.3 mph N/A   Mostly Cloudy
2:35 AM -7.6 °F -32.3 °F -20.2 °F 54% 30.38 in 10.0 mi NW 20.7 mph 26.5 mph N/A   Scattered Clouds
2:55 AM -7.6 °F -31.1 °F -20.2 °F 54% 30.38 in 10.0 mi NW 18.4 mph 24.2 mph N/A   Scattered Clouds
3:15 AM -7.6 °F -30.5 °F -20.2 °F 54% 30.38 in 10.0 mi NW 17.3 mph 24.2 mph N/A   Scattered Clouds
3:35 AM -7.6 °F -29.8 °F -20.2 °F 54% 30.39 in 10.0 mi NW 16.1 mph - N/A   Partly Cloudy
3:55 AM -9.4 °F -28.9 °F -20.2 °F 59% 30.39 in 10.0 mi WNW 11.5 mph 20.7 mph N/A   Clear
4:15 AM -9.4 °F -28.9 °F -18.4 °F 65% 30.39 in 10.0 mi NW 11.5 mph - N/A   Clear
4:35 AM -9.4 °F -27.9 °F -18.4 °F 65% 30.39 in 10.0 mi WNW 10.4 mph - N/A   Clear
4:55 AM -9.4 °F -27.9 °F -18.4 °F 65% 30.39 in 10.0 mi WNW 10.4 mph - N/A   Clear
5:15 AM -9.4 °F -30.6 °F -20.2 °F 59% 30.39 in 10.0 mi NW 13.8 mph 18.4 mph N/A   Clear
5:35 AM -9.4 °F -25.6 °F -20.2 °F 59% 30.39 in 10.0 mi NW 8.1 mph - N/A   Clear
5:55 AM -11.2 °F -30.1 °F -20.2 °F 64% 30.38 in 10.0 mi WNW 10.4 mph - N/A   Partly Cloudy
6:15 AM -9.4 °F -28.9 °F -20.2 °F 59% 30.38 in 10.0 mi NW 11.5 mph - N/A   Clear
6:35 AM -9.4 °F -26.8 °F -20.2 °F 59% 30.38 in 10.0 mi NW 9.2 mph - N/A   Clear
6:55 AM -9.4 °F -25.6 °F -20.2 °F 59% 30.39 in 10.0 mi NW 8.1 mph - N/A   Clear
7:15 AM -11.2 °F -26.4 °F -20.2 °F 64% 30.39 in 10.0 mi West 6.9 mph - N/A   Clear
7:35 AM -11.2 °F -29.0 °F -20.2 °F 64% 30.39 in 10.0 mi West 9.2 mph - N/A   Clear
7:55 AM -11.2 °F -27.8 °F -20.2 °F 64% 30.39 in 10.0 mi West 8.1 mph - N/A   Clear
8:15 AM -11.2 °F -27.8 °F -20.2 °F 64% 30.39 in 10.0 mi West 8.1 mph - N/A   Clear
8:35 AM -11.2 °F -31.1 °F -20.2 °F 64% 30.40 in 10.0 mi WNW 11.5 mph - N/A   Clear
8:55 AM -9.4 °F -29.8 °F -20.2 °F 59% 30.40 in 10.0 mi WNW 12.7 mph - N/A   Clear
9:15 AM -9.4 °F -29.8 °F -20.2 °F 59% 30.40 in 10.0 mi WNW 12.7 mph - N/A   Clear
9:35 AM -7.6 °F -29.8 °F -20.2 °F 54% 30.41 in 10.0 mi WNW 16.1 mph - N/A   Clear
9:55 AM -7.6 °F -29.1 °F -20.2 °F 54% 30.42 in 10.0 mi WNW 15.0 mph - N/A   Clear
10:15 AM -7.6 °F -31.1 °F -20.2 °F 54% 30.42 in 10.0 mi WNW 18.4 mph - N/A   Clear
10:35 AM -7.6 °F -29.8 °F -18.4 °F 59% 30.43 in 10.0 mi WNW 16.1 mph 20.7 mph N/A   Clear
10:55 AM -5.8 °F -27.5 °F -18.4 °F 55% 30.43 in 10.0 mi NW 16.1 mph - N/A   Clear
11:15 AM -5.8 °F -28.2 °F -18.4 °F 55% 30.43 in 10.0 mi NW 17.3 mph 20.7 mph N/A   Clear
11:35 AM -4.0 °F -26.4 °F -18.4 °F 50% 30.43 in 10.0 mi NW 18.4 mph - N/A   Clear
11:55 AM -4.0 °F -24.5 °F -18.4 °F 50% 30.42 in 10.0 mi NW 15.0 mph 21.9 mph N/A   Clear
12:15 PM -4.0 °F -24.5 °F -16.6 °F 55% 30.42 in 10.0 mi NW 15.0 mph - N/A   Clear
12:35 PM -4.0 °F -25.2 °F -16.6 °F 55% 30.41 in 10.0 mi NW 16.1 mph 23.0 mph N/A   Clear
12:55 PM -4.0 °F -24.5 °F -16.6 °F 55% 30.41 in 10.0 mi NW 15.0 mph 20.7 mph N/A   Clear
1:15 PM -2.2 °F -24.1 °F -16.6 °F 50% 30.40 in 10.0 mi WNW 18.4 mph 23.0 mph N/A   Clear
1:35 PM -2.2 °F -24.1 °F -16.6 °F 50% 30.39 in 10.0 mi NW 18.4 mph - N/A   Clear
1:55 PM -2.2 °F -23.5 °F -16.6 °F 50% 30.39 in 10.0 mi NW 17.3 mph 21.9 mph N/A   Clear
2:15 PM -2.2 °F -22.9 °F -14.8 °F 55% 30.38 in 10.0 mi NNW 16.1 mph 23.0 mph N/A   Partly Cloudy
2:35 PM -0.4 °F -18.4 °F -13.0 °F 55% 30.38 in 10.0 mi NW 12.7 mph - N/A   Clear
2:55 PM -0.4 °F -17.6 °F -14.8 °F 51% 30.37 in 10.0 mi NW 11.5 mph 20.7 mph N/A   Clear
3:15 PM -0.4 °F -17.6 °F -13.0 °F 55% 30.37 in 10.0 mi WNW 11.5 mph - N/A   Clear
3:35 PM -0.4 °F -19.9 °F -13.0 °F 55% 30.37 in 10.0 mi NW 15.0 mph 18.4 mph N/A   Clear
3:55 PM -0.4 °F -19.9 °F -13.0 °F 55% 30.37 in 10.0 mi NW 15.0 mph - N/A   Clear
4:15 PM -0.4 °F -19.9 °F -13.0 °F 55% 30.37 in 10.0 mi NW 15.0 mph - N/A   Clear
4:35 PM -0.4 °F -19.9 °F -13.0 °F 55% 30.38 in 10.0 mi NNW 15.0 mph - N/A   Clear
4:55 PM -2.2 °F -20.7 °F -14.8 °F 55% 30.38 in 10.0 mi NW 12.7 mph - N/A   Clear
5:15 PM -2.2 °F -16.8 °F -13.0 °F 60% 30.38 in 10.0 mi NW 8.1 mph - N/A   Clear
5:35 PM -2.2 °F -20.7 °F -13.0 °F 60% 30.38 in 10.0 mi NW 12.7 mph - N/A   Clear
5:55 PM -2.2 °F -18.9 °F -13.0 °F 60% 30.38 in 10.0 mi NW 10.4 mph - N/A   Clear
6:15 PM -4.0 °F -17.8 °F -13.0 °F 65% 30.38 in 10.0 mi NW 6.9 mph - N/A   Clear
6:35 PM -4.0 °F -14.6 °F -14.8 °F 60% 30.39 in 10.0 mi NW 4.6 mph - N/A   Clear
6:55 PM -4.0 °F -19.0 °F -13.0 °F 65% 30.39 in 10.0 mi NW 8.1 mph - N/A   Clear
7:15 PM -4.0 °F -16.3 °F -14.8 °F 60% 30.40 in 10.0 mi NW 5.8 mph - N/A   Clear
7:35 PM -5.8 °F -18.4 °F -14.8 °F 65% 30.40 in 10.0 mi WNW 5.8 mph - N/A   Clear
7:55 PM -5.8 °F -19.9 °F -14.8 °F 65% 30.40 in 10.0 mi WNW 6.9 mph - N/A   Clear
8:15 PM -5.8 °F -16.7 °F -14.8 °F 65% 30.40 in 10.0 mi WNW 4.6 mph - N/A   Clear
8:35 PM -7.6 °F -18.8 °F -16.6 °F 65% 30.40 in 10.0 mi WNW 4.6 mph - N/A   Clear
8:55 PM -9.4 °F -22.7 °F -18.4 °F 65% 30.40 in 10.0 mi West 5.8 mph - N/A   Clear
9:15 PM -9.4 °F - -16.6 °F 71% 30.40 in 10.0 mi Calm Calm - N/A   Clear
9:35 PM -9.4 °F - -18.4 °F 65% 30.40 in 10.0 mi Calm Calm - N/A   Scattered Clouds
9:55 PM -9.4 °F -18.6 °F -16.6 °F 71% 30.39 in 10.0 mi WSW 3.5 mph - N/A   Mostly Cloudy
10:15 PM -7.6 °F -18.8 °F -16.6 °F 65% 30.39 in 10.0 mi WSW 4.6 mph - N/A   Scattered Clouds
10:35 PM -9.4 °F -20.9 °F -16.6 °F 71% 30.38 in 10.0 mi West 4.6 mph - N/A   Clear
10:55 PM -7.6 °F -18.8 °F -16.6 °F 65% 30.38 in 10.0 mi West 4.6 mph - N/A   Partly Cloudy
11:15 PM -7.6 °F -22.1 °F -16.6 °F 65% 30.38 in 10.0 mi WNW 6.9 mph - N/A   Clear
11:35 PM -7.6 °F -22.1 °F -16.6 °F 65% 30.37 in 10.0 mi West 6.9 mph - N/A   Clear
11:55 PM -7.6 °F -25.7 °F -16.6 °F 65% 30.37 in 10.0 mi WNW 10.4 mph - N/A   Clear